Terug naar catalogus

CZ-3A DEB

ActiefGTO
NORAD 35551·DEBRIS·🇨🇳 China

Gelanceerd Feb 2, 2007 vanaf Xichang Satellite Launch Center

Loading…

TLE

VerouderdSource: Space-Track

Epoch: Sep 13, 2026, 23:15 UTC

1 35551U 07003K   26256.96886997 -.00000146  00000-0 -23845-3 0  9990
2 35551  24.6499 204.7298 7202978 183.2162 166.4800  2.16455503 22982

Volg CZ-3A DEB in realtime met AllMySat

Download on the App Store